Location: Bodest
(46.3000°N, 22.5667°E)
Time: 00:24:30
(UTC+00:00)

SL-19 R/B - Pass Details

Date: 16 October 2021
Orbit: 874 x 1209 km, 100.6° (Epoch: 26 November)

Event Time Altitude Azimuth Distance (km) Brightness Sun altitude
Rises 16:19:18 0° 17° (NNE) 3,650 7.3 -7.3°
Reaches altitude 10° 16:21:49 10° 19° (NNE) 2,660 6.6 -7.7°
Maximum altitude 16:27:42 79° 106° (ESE) 919 4.3 -8.7°
Drops below altitude 10° 16:33:16 10° 194° (SSW) 2,525 6.9 -9.7°
Sets 16:35:36 0° 195° (SSW) 3,452 7.6 -10.1°
